Regional Weather Roundup
Issued by NWS

Home | Current Version | Previous Version | Graphics & Text | Print | Product List | Glossary On
Versions: 1 2 3 4 5 6 7 8 9 10 11 12 13 14 15 16 17 18 19 20 21 22 23 24 25 26 27 28 29 30 31 32 33 34 35 36 37 38 39 40 41 42 43 44 45 46 47 48 49 50
000
ASUS45 KABQ 062310
RWRNM
NEW MEXICO REGIONAL WEATHER ROUNDUP
NATIONAL WEATHER SERVICE ALBUQUERQUE NM
500 PM MDT FRI MAY 06 2016

NOTE: "FAIR" MEANS FEW OR NO CLOUDS BELOW 12,000 FEET AGL WITH NO
       SIGNIFICANT WEATHER OR OBSTRUCTIONS TO VISION.

      THIS PRODUCT IS RELEASED AS TWO VERSIONS.  ONE VERSION NEAR
      THE TOP OF THE HOUR CONTAINING PRELIMINARY DATA FROM ALBUQUERQUE
      AND OTHER STATIONS.  A FINAL VERSION WITH ADDITIONAL DATA IS
      ISSUED ABOUT 10 MINUTES AFTER THE HOUR.

NMZ501-503-504-510>518-070000-
NORTHWEST PLATEAU/NORTHCENTRAL MOUNTAINS

CITY           SKY/WX    TMP DP  RH WIND       PRES   REMARKS
FARMINGTON     FAIR      67  33  28 NW26G45   29.77F
LOS ALAMOS     FAIR      73   9   8 S29G38    29.97S
SANTA FE       FAIR      78   9   7 S21G39    29.91F
TAOS           FAIR      72  25  17 S20G28    29.96F
ANGEL FIRE     FAIR      67  26  20 S30G39    30.08F

$$
NMZ402-403-502-505>509-070000-
WESTCENTRAL MOUNTAINS/SOUTHWEST MOUNTAINS

CITY           SKY/WX    TMP DP  RH WIND       PRES   REMARKS
GALLUP         FAIR      66  27  23 SW17      29.88F
GRANTS         FAIR      74  14  10 S21G36    29.89S
SILVER CITY      N/A     77  12   8 SW29G38   29.90F

$$
NMZ407-409-411-412-070000-
SOUTHERN DESERTS

CITY           SKY/WX    TMP DP  RH WIND       PRES   REMARKS
LORDSBURG      FAIR      82  23  11 SW23G36   29.83F
DEMING         PTSUNNY   86  16   7 SW23G37   29.82F
LAS CRUCES     CLOUDY    89  16   7 SW21G28   29.83F
HOLLOMAN AFB   FAIR      92   8   4 SW32G39   29.77F
ALAMOGORDO     FAIR      91  16   6 SW17G28   29.80F
T OR C         FAIR      84   4   5 S39G48    29.81F

$$
NMZ519>523-070000-
CENTRAL VALLEYS/CENTRAL HIGHLANDS

CITY           SKY/WX    TMP DP  RH WIND       PRES   REMARKS
ALBUQUERQUE    FAIR      82  13   7 S37G49    29.86F
DOUBLE EAGLE   MOSUNNY   79  18  10 S35G46    29.89F
MORIARTY ARPT  FAIR      80  12   7 S23G33    29.95F
CLINES CORNERS FAIR      76  12   8 S30G44    29.99F
BELEN          FAIR      82  13   7 S33G52    29.84F
SOCORRO        FAIR      84  16   7 S25G32    29.82F

$$
NMZ524>526-539-540-070000-
SOUTHCENTRAL MOUNTAINS

CITY           SKY/WX    TMP DP  RH WIND       PRES   REMARKS
RUIDOSO        FAIR      77  14   9 SW29G36   30.01F

$$
NMZ527>531-070000-
NORTHEAST HIGHLANDS/NORTHEAST PLAINS

CITY           SKY/WX    TMP DP  RH WIND       PRES   REMARKS
LAS VEGAS      FAIR      71  27  19 S22G31    30.01S
RATON          FAIR      77  33  20 S32G38    29.95F
CLAYTON        FAIR      81  33  17 S28G36    29.94F

$$
NMZ532>537-070000-
EASTCENTRAL PLAINS

CITY           SKY/WX    TMP DP  RH WIND       PRES   REMARKS
TUCUMCARI      FAIR      89  31  12 S28G37    29.85F
CANNON AFB     FAIR      86  33  14 S24G33    29.91F
CLOVIS AIRPORT FAIR      84  34  16 S32G38    29.93F

$$
NMZ028-029-538-070000-
SOUTHEAST PLAINS

CITY           SKY/WX    TMP DP  RH WIND       PRES   REMARKS
ROSWELL        FAIR      91  29  11 S26G33    29.80F
ARTESIA        FAIR      91  37  15 SE23G37   29.79F
CARLSBAD       LGT RAIN  86  43  22 SE21G30   29.78F


$$




USA.gov is the U.S. government's official web portal to all federal, state and local government web resources and services.